Bates

United States     34˚22′55″N   119˚29′09″W
temp.,
°C
wind,
m/s
gust,
m/s
humid.,
%
clouds,
%
prec.,
mm/h
press.,
hPa
HPBL,
m
29 november, sun
sun2901:00+10˚nne33300 0.0 102026
04:00+9˚nne33280 0.0 102028
07:00+10˚nne33230 0.0 102130
10:00+20˚ssw22120 0.0 1021565
13:00+21˚sw32120 0.0 1019697
16:00+17˚sw12170 0.0 102051
19:00+12˚nne332293 0.0 102032
22:00+12˚nne332496 0.0 102227
30 november, mon
mon3001:00+13˚nne2321100 0.0 102125
04:00+12˚nne332099 0.0 102124
07:00+11˚nne33180 0.0 102130
10:00+22˚ssw1190 0.0 1022628
13:00+22˚sw22100 0.0 10201074
16:00+19˚nw23140 0.0 1019148
19:00+11˚nne54280 0.0 102077
22:00+11˚nne54220 0.0 102179
1 december, tue
tue101:00+11˚nne54180 0.0 102075
04:00+11˚nne54180 0.0 102086
07:00+11˚nne44160 0.0 102060
10:00+23˚wsw1180 0.0 1020532
13:00+23˚sw3290 0.0 1017734
16:00+18˚s11120 0.0 101630
19:00+13˚nne33200 0.0 101725
22:00+13˚nne33180 0.0 101723
2 december, wed
wed201:00+13˚nne33170 0.0 101724
04:00+13˚nne33160 0.0 101724
07:00+13˚nne33140 0.0 101723
10:00+22˚ssw2180 0.0 1018563
13:00+23˚ssw3290 0.0 1016766
16:00+19˚ssw12130 0.0 101647
19:00+13˚nne33180 0.0 101725
22:00+13˚nne33180 0.0 101924
3 december, thu
thu301:00+12˚ne33170 0.0 101929
04:00+11˚ne43140 0.0 102038
07:00+10˚nne33150 0.0 102231
10:00+20˚w23913 0.0 1023762
13:00+21˚wsw331349 0.0 1021868
16:00+15˚w241974 0.0 1021199
19:00+11˚nne2322100 0.0 102224
22:00+10˚nne3318100 0.0 102327